Volver al catálogo

ATLAS 5 CENTAUR R/B

ActivoVLEO
NORAD 49329·ROCKET BODY·🇺🇸 United States

Lanzado Oct 16, 2021 desde Cape Canaveral Space Force Station

Loading…

Próximos Pases (próximas 24 horas)

TLE

ObsoletoSource: Space-Track

Época: Oct 16, 2021, 09:47 UTC

1 49329U 21093B   21289.40775685  .00002371 -74891-5  00000-0 0  9994
2 49329  28.4700 357.4008 0105000 216.7000 268.5023 16.15960640    03

Sigue ATLAS 5 CENTAUR R/B en tiempo real con AllMySat

Download on the App Store